COSMOS 1375 DEB

Satellite information

Favourite Embed

Satellite Type and Status

DEBRISIN ORBIT

Key statistics

Satellite COSMOS 1375 DEB at a glance.

Uptime

15799

Days in orbit

Revolutions

≈ 13.8

Per day

Orbit

LEO

Low Earth Orbit

Inclination

65.8

Latest

Satellite identification and parameters

Extended collection of information and parameters for COSMOS 1375 DEB.

Object identification

Identified? True

Debris? True

Object name: COSMOS 1375 DEB

International designator: 1982-055AK

Object number (NORAD): 17108

Object ID (CCSDS): 17108

Country: COMMONWEALTH OF INDEPENDENT STATES (CIS)

Current information (Y/N): Y

RCS size: SMALL

Orbital parameters

Period: 104.218 minutes

Inclination: 65.8306 deg

SMA: 7335.918 km

Apoapsis: 962.727 km

Periapsis: 952.839 km

RAAN: 287.5304 deg

Eccentricy: 0.00067389

Argument of periapsis: 104.9075 deg

Mean anomaly: 70.5968 deg

Mean motion: 13.81723215 rev/day

Mean motion (dot): 0.00000497 rev/day2

B* drag term: 0.00054065504 1/REarth

Two-line elements (TLE)

Creation date: Sept. 7, 2025, 3:09 a.m.

Reference frame: TEME

Reference center: EARTH

Epoch: Sept. 6, 2025, 8:51 p.m. UTC

TLE line 0: 0 COSMOS 1375 DEB

TLE line 1: 1 17108U 82055AK 25249.86903051 .00000497 00000-0 54066-3 0 9995

TLE line 2: 2 17108 65.8306 287.5304 0006739 104.9075 70.5968 13.81723215 3659

Live tracking on map

Real-time ground track for satellite COSMOS 1375 DEB.

In-orbit conjunctions

A list of the most updated potential collisions computed for object COSMOS 1375 DEB.

Target Orbit TCA Probability of collision Miss distance Type
SL-8 R/B LEO 2025-08-30 11:12:20 0.0004808644 388.0 (m) ROCKET BODY
FENGYUN 1C DEB SSO 2024-10-26 14:15:29 0.0001215238 219.0 (m) DEBRIS

Associated space launch

ASAT target satellite

COSMOS 1375 DEB was lifted into orbit during the mission ‘Kosmos-3M | DS-P1-M 16’, on board a Kosmos-3M space rocket.

The launch took place on June 6, 1982, 5:10 p.m. from 132/2.

For more information about the launch, click the button.

Launch to space Kosmos-3M | DS-P1-M 16
Kosmos-3M | DS-P1-M 16

Agency: N/A

Status: Launch Successful

Launch date: June 6, 1982, 5:10 p.m. UTC

Rocket: Kosmos-3M

Launch pad: 132/2

Location: Plesetsk Cosmodrome, Russian Federation

...

Latest news about this satellite

There are no fresh news available about this satellite. Check back as we update our databases every day.


Newsletter sign-up

Weekly statistics, charts and insights to help you stay on top of the space industry.